GORIZONT 19 (20263 NORAD) Tracking and Keplerian Element Data

This shows tracking and keplerian element data for the satellite.

Feedback or suggestion? Click here.




ElementValue
Catalog20263
NameGORIZONT 19
Epoch Orbit4554
Epoch Day353.57487726
Epoch Year2025
RAAN334.6988
Inclination12.2737
Eccentricity0.0006587
Argument of Perigee274.1234
Mean Anonmoly158.6489
Mean Motion1.00249282
Decay Rate-3.49E-06
L11 20263U 89081A 25353.57487726 -.00000349 00000+0 00000+0 0 9998
L22 20263 12.2737 334.6988 0006587 274.1234 158.6489 1.00249282 45544



Live tracking and technical data element details for GORIZONT 19 (NORAD 20263). GORIZONT 19 can be tracked NOW for your location showing map with azimuth and elevation plus other details from your city location.







IsCatalogInMostPopularTable: catalog: 20263, numindb: 346
Update: records affected: 1



GetName: 20263 GORIZONT 19

Hit Count: updated at: Sat, 07 Mar 2026 06:55:37 GMT